CAPE
2042 2072 2097 2190 2164 2078 1871 1874 1994 2034 2040 1964 1802 1387 1702 1750 1691 1861 2112 2075 1806 1877 1793 1680 1989 1829 1703 1514 1235 1090 816 659 723 682 886 488 568 468 352 371 364 253 371 389 406 301 183 41 0 0 0 0 11 52 0 0 0 0 0 0 0 0 0
2292 2205 2198 2092 2333 2229 2090 2094 1936 1891 1942 1746 1652 1746 1672 1853 1738 1913 2110 1857 1771 1909 1835 1772 1799 1664 1570 1533 1006 1015 968 963 836 761 559 602 538 508 298 206 232 260 284 342 373 379 299 415 186 0 0 0 0 0 0 0 0 0 0 0 0 0 0
2135 2218 2371 2417 2385 2283 2175 2199 2026 2074 1875 1834 1849 1667 1702 1775 1770 1919 1993 1846 1874 1792 1671 1625 1789 1596 1357 1249 1306 1088 1141 1256 1061 873 708 661 560 530 545 451 359 356 302 260 257 283 306 325 335 3 1 0 0 0 0 0 0 0 0 0 0 0 0
2463 2377 2490 2620 2430 2297 2196 2319 2091 2024 1938 1882 1917 1897 1841 1868 1840 1827 2066 2053 1897 1816 1556 1391 1680 1560 1368 1266 1068 1104 1093 915 840 795 819 645 679 619 586 524 497 319 324 304 340 281 250 312 224 124 20 0 0 0 0 0 0 0 0 0 0 0 0
2681 2535 2620 2716 2565 2387 2333 2214 2156 2047 1869 1862 1855 1893 1896 1848 1818 1772 1852 2014 1915 1841 1638 1433 1480 1428 945 908 967 1078 840 818 710 732 788 824 792 678 699 607 562 474 431 380 376 364 377 297 297 273 9 6 0 0 0 0 0 0 0 0 0 0 0
2819 2592 2625 2517 2484 2337 2392 2392 2264 2026 1894 1900 2035 1946 1957 1841 1798 1850 1896 1975 1971 1615 1694 1480 1317 1151 931 1114 896 879 755 879 893 904 949 924 870 809 697 681 515 440 429 406 428 438 370 322 341 166 8 0 0 0 0 0 0 0 0 0 0 0 0
2922 2780 2540 2426 2502 2104 2288 2493 2335 2185 1983 1946 1909 1969 1879 1824 1782 1796 1935 2111 1934 1702 1594 1408 1175 1163 1034 1006 962 917 845 790 692 732 807 784 672 670 708 584 604 494 469 456 408 406 347 280 190 74 18 2 0 0 0 0 0 0 0 0 0 0 0
2930 2686 2567 2160 2388 2437 2295 2403 2481 2222 2108 2021 1814 1812 1659 1871 1784 1850 2164 2270 1951 1716 1439 1307 1198 1094 1078 965 778 774 595 452 373 449 545 524 585 676 686 635 538 483 394 379 340 355 269 214 104 46 63 4 0 0 0 0 0 4 7 0 0 0 0
3033 2969 2774 2355 2242 2570 2457 2183 2454 2375 2073 2004 1660 1649 1880 1853 1934 1914 2122 2121 1879 1582 1372 1244 1174 1024 964 800 650 425 353 280 315 180 206 270 416 482 556 462 351 245 256 230 159 178 130 54 24 35 66 2 0 0 0 0 2 7 0 0 0 0 0
3273 3134 2950 2696 2602 2588 2577 2353 2350 2233 1768 1652 1990 1869 1824 1962 1836 1976 2120 1857 1528 1560 1427 1198 1094 885 584 532 412 341 253 123 65 159 176 106 91 111 144 172 147 84 97 139 88 12 7 7 2 0 0 0 0 0 0 1 0 0 6 0 0 0 0
3209 3308 3182 2881 2637 2667 2458 2379 2288 2313 1966 2010 2108 2055 1770 1910 1834 1817 2000 1587 1616 1519 1266 1095 926 611 640 641 463 318 280 243 18 24 38 20 20 80 66 68 29 31 20 4 3 0 0 0 0 0 0 0 0 11 15 7 0 0 0 0 0 0 0
3244 3188 3223 2981 2693 2479 2458 2376 2347 2323 2114 2040 2122 2222 1920 1694 1838 1815 1713 1516 1519 1341 1143 992 660 693 649 583 494 321 301 272 100 1 0 0 0 0 0 0 0 0 0 0 0 0 0 0 0 0 0 0 0 2 22 0 0 4 0 0 0 0 0
2881 3102 2837 2849 2790 2545 2172 2366 2369 2366 2360 2164 2329 2231 1837 1451 1852 1560 1532 1428 1356 1209 833 692 750 731 616 540 478 331 313 279 0 0 0 0 0 0 0 0 0 0 0 0 0 0 0 0 0 0 0 0 0 0 12 0 5 20 3 0 0 0 0
3108 3023 2832 2851 2814 2462 2184 2092 2280 2348 2500 2311 2241 2118 1908 2009 1885 1782 1662 1365 1061 925 798 749 774 743 634 531 475 324 328 291 0 0 0 0 0 0 0 0 0 0 0 0 0 0 0 0 0 0 0 0 0 0 0 1 14 18 0 0 0 0 0
3211 2829 3117 3152 2702 2346 2328 2276 2294 2382 2517 2481 2241 2056 2032 1871 1783 1691 1551 1031 1134 982 846 794 805 747 662 538 432 333 313 26 0 0 0 0 0 0 0 0 0 0 0 0 0 0 0 0 0 0 0 1 0 0 0 15 21 4 0 0 0 0 0
3098 3059 3235 3233 2676 2561 2351 2352 2270 2422 2537 2533 2210 2202 2030 1756 1626 1573 1409 1039 1182 1037 898 852 793 754 639 477 350 319 201 0 0 0 0 0 0 0 0 0 0 0 0 0 0 0 0 0 0 0 0 0 0 0 5 39 24 13 2 0 0 0 0
3074 3086 3185 3106 2847 2642 2370 2281 2268 2328 2324 2299 2202 2121 1987 1667 1502 1450 1254 1099 1230 1104 974 881 806 751 570 407 322 312 0 0 0 0 0 0 0 0 0 0 0 0 0 0 0 0 0 0 0 0 0 0 0 0 44 52 1 28 0 0 0 0 0
3071 3148 3226 2963 2666 2374 2333 2311 2215 2202 2294 2200 2166 2035 1787 1461 1420 1306 1078 1185 1264 1164 1011 875 798 658 514 382 351 226 0 0 0 0 0 0 0 0 0 0 0 0 0 0 0 0 0 0 0 0 0 0 0 11 47 0 0 0 0 0 0 0 0
2912 3145 3139 2905 2520 2561 2413 2323 2232 2046 2015 2097 2060 1896 1529 1394 1179 1107 1102 1226 1285 1159 1005 844 776 677 524 431 433 259 0 0 0 0 0 0 0 0 0 0 0 0 0 0 0 0 0 0 0 0 0 0 4 31 0 13 0 0 0 0 0 0 0
2826 2892 2932 2842 2773 2571 2424 2318 2132 1801 1816 2055 1947 1687 1504 1396 1240 1144 1120 1251 1283 1150 1043 844 754 605 490 502 513 423 276 0 0 0 0 0 0 0 0 0 0 0 0 0 0 0 0 0 0 0 0 0 4 16 1 0 0 0 0 0 0 0 0
2631 2774 2933 2861 2649 2587 2418 2228 1916 1668 1925 1997 1849 1509 1489 1353 1302 1180 1125 1290 1324 1170 1084 920 775 590 460 479 540 519 445 75 0 0 0 0 0 0 0 0 0 0 0 0 0 0 0 0 0 0 0 0 0 15 25 8 0 0 0 0 0 0 0
2649 2624 2641 2672 2604 2416 2205 2143 1856 1640 1694 1920 1620 1468 1438 1429 1302 1206 1141 1304 1334 1243 1096 929 804 596 442 447 496 552 546 357 200 0 0 0 0 0 0 0 0 0 0 0 0 0 0 0 0 0 0 0 0 7 8 0 0 0 0 0 0 0 0
2580 2560 2478 2482 2489 2357 2040 2016 1656 1696 1694 1574 1590 1448 1502 1452 1301 1224 1102 1268 1324 1300 1173 982 828 719 485 441 516 555 510 348 246 68 0 0 0 0 0 0 0 0 0 0 0 0 0 0 0 0 1 0 0 0 0 0 0 0 0 0 0 0 0
2461 2467 2464 2407 2376 2249 2030 1798 1691 1632 1725 1624 1438 1502 1522 1447 1318 1185 1126 1294 1330 1313 1183 1018 743 684 529 502 527 487 424 322 234 126 0 0 0 0 0 0 0 0 0 0 0 0 0 0 0 15 17 8 1 0 0 0 0 0 0 0 0 0 0
2427 2295 2289 2376 2316 2070 1889 1677 1529 1566 1709 1700 1525 1502 1550 1481 1308 1193 1154 1272 1322 1315 1182 1057 712 570 507 563 538 413 316 307 229 64 0 0 0 0 0 0 0 0 0 0 0 0 0 0 0 19 20 14 4 0 0 0 2 0 0 0 0 0 0
2192 2096 2255 2240 2066 1975 1719 1486 1492 1602 1653 1684 1622 1535 1614 1464 1315 1218 1245 1311 1331 1319 1176 1051 750 539 480 542 498 362 314 316 223 20 0 0 0 0 0 0 0 0 0 0 0 0 0 0 3 18 27 18 1 0 0 0 0 0 0 0 0 0 0
2012 2097 2083 2051 1648 1548 1434 1480 1557 1534 1564 1690 1725 1618 1552 1391 1311 1233 1284 1418 1428 1391 1214 1008 723 547 459 497 408 326 325 360 279 200 0 0 0 90 0 0 0 0 0 0 0 0 0 14 8 3 26 2 0 0 0 0 0 0 0 0 0 0 0
1966 1982 1942 1828 1568 1477 1420 1476 1459 1496 1634 1708 1719 1664 1641 1550 1327 1264 1347 1454 1532 1448 1205 942 672 551 486 495 362 319 365 423 417 302 187 163 148 149 20 0 0 0 30 166 136 110 23 18 3 22 13 0 0 0 0 0 0 0 0 0 0 0 0
2112 1839 1778 1614 1482 1382 1371 1349 1433 1524 1614 1673 1754 1646 1635 1582 1276 1316 1403 1531 1564 1427 1179 934 703 595 499 476 371 340 357 424 462 384 260 183 163 148 98 0 0 0 171 175 123 11 34 37 39 15 0 0 0 0 0 0 0 0 41 34 0 0 0
2015 1972 1587 1451 1329 1250 1285 1393 1446 1455 1558 1675 1677 1678 1695 1617 1300 1135 1416 1468 1461 1326 1083 933 730 654 541 392 368 311 317 359 404 428 355 232 174 148 143 97 0 0 161 178 109 45 51 46 36 4 0 0 0 0 0 0 0 0 0 0 0 0 0
2037 1780 1637 1352 1252 1245 1326 1347 1432 1424 1491 1612 1633 1689 1693 1631 1320 1078 1205 1218 1125 1172 1093 962 774 669 574 473 409 351 318 284 390 443 420 294 205 168 149 125 22 0 171 65 81 96 84 70 35 0 0 0 0 0 0 0 1 0 0 0 0 0 0
1950 1620 1403 1321 1265 1303 1328 1406 1478 1390 1421 1503 1608 1687 1654 1618 1411 1152 1140 1091 1080 1055 1144 1024 818 691 643 583 480 393 346 386 412 452 446 357 260 218 199 159 138 140 173 203 98 101 96 76 10 0 0 0 0 0 0 0 0 0 0 0 0 0 0
1882 1465 1384 1343 1352 1340 1382 1464 1499 1440 1415 1452 1529 1564 1618 1622 1418 1096 1195 1048 1120 1142 1140 1032 862 728 717 651 557 457 426 435 438 430 406 353 297 276 233 206 169 167 189 165 84 83 77 47 8 0 0 0 0 0 0 0 0 0 0 0 0 0 0
1940 1628 1357 1368 1394 1435 1464 1498 1472 1448 1424 1488 1529 1510 1456 1407 1327 1237 1265 1206 1129 1068 1064 984 884 759 680 613 675 624 503 396 340 372 309 332 273 250 260 244 213 192 161 106 112 112 64 25 13 0 0 0 0 0 0 0 0 0 0 0 0 0 0
1606 1440 1392 1368 1409 1502 1517 1459 1463 1467 1484 1500 1523 1374 1085 1000 1004 1091 1189 1157 1185 1088 1000 905 887 724 710 695 645 513 334 261 257 270 192 80 258 297 256 249 234 165 111 129 120 21 8 11 3 0 0 0 0 0 0 0 0 0 0 0 0 0 0
1513 1468 1452 1476 1484 1484 1488 1502 1475 1471 1532 1560 1494 1245 765 601 670 810 952 1100 1048 1039 979 897 863 756 662 518 444 333 243 224 191 182 199 83 38 182 166 165 150 113 120 123 73 53 0 0 0 0 0 0 0 0 0 0 0 0 0 0 0 0 0
1582 1540 1514 1555 1582 1607 1616 1596 1556 1527 1525 1582 1540 1337 1168 666 514 651 985 1130 1093 1070 921 823 816 678 524 508 465 311 230 187 158 167 137 80 14 102 120 124 82 124 127 74 0 0 0 0 0 0 0 0 0 0 0 0 0 0 0 0 0 0 0
Wind_Speed
20 22 22 22 22 22 24 26 26 26 28 30 30 30 31 31 30 28 25 24 23 23 22 19 18 19 20 21 21 21 21 23 24 24 25 24 22 21 19 18 18 17 16 15 13 13 13 nan nan nan nan nan nan nan nan nan nan nan nan nan nan nan nan
23 22 23 24 24 26 28 28 27 28 30 31 31 31 30 30 30 27 24 23 22 22 20 17 18 20 21 21 21 21 22 22 23 23 22 23 22 18 22 19 18 18 17 16 14 15 14 14 17 nan nan nan nan nan nan nan nan nan nan nan nan nan nan
23 23 25 27 27 30 31 31 30 28 31 33 31 31 30 30 30 26 23 22 22 21 19 18 19 20 20 20 21 20 21 21 21 22 21 20 20 19 19 19 19 19 17 16 16 16 15 15 14 nan nan nan nan nan nan nan nan nan nan nan nan nan nan
25 25 26 28 29 32 33 34 31 30 32 33 31 30 30 29 28 25 23 22 21 20 18 18 19 20 20 20 20 20 20 20 21 21 20 18 18 19 19 20 20 20 19 17 18 18 16 17 19 17 nan nan nan nan nan nan nan nan nan nan nan nan nan
25 26 27 28 32 33 35 34 32 32 33 33 31 30 29 28 27 25 23 22 22 21 19 18 19 19 20 20 20 20 20 20 19 19 19 18 18 18 20 21 21 19 18 17 17 18 18 17 18 19 nan nan nan nan nan nan nan nan nan nan nan nan nan
24 26 27 28 31 33 35 35 35 34 34 32 31 30 29 29 26 24 23 23 23 21 18 17 18 20 20 19 19 18 19 20 21 20 19 20 20 20 21 21 20 21 19 18 18 17 18 18 18 20 nan nan nan nan nan nan nan nan nan nan nan nan nan
26 26 25 27 30 32 35 35 36 35 34 32 30 29 29 28 25 24 23 23 24 23 20 19 20 20 20 19 19 18 19 20 19 20 19 19 20 20 20 22 22 21 20 19 18 17 18 19 20 nan nan nan nan nan nan nan nan nan nan nan nan nan nan
28 27 25 26 30 33 34 36 38 36 33 31 29 29 28 27 26 25 24 24 25 24 22 21 21 21 20 17 17 18 18 19 20 20 21 21 21 22 22 22 22 21 21 21 20 18 19 20 20 nan nan nan nan nan nan nan nan nan nan nan nan nan nan
31 29 27 27 29 33 35 35 39 37 33 29 27 28 28 27 27 26 26 25 25 24 22 22 22 21 21 18 17 18 19 20 20 21 20 22 22 22 22 22 21 20 21 20 20 20 19 nan nan nan nan nan nan nan nan nan nan nan nan nan nan nan nan
28 29 28 29 30 33 35 35 37 37 33 29 29 28 28 27 27 27 27 26 25 24 23 22 22 21 22 19 18 20 20 22 nan 22 21 21 nan 22 22 22 21 nan nan 21 nan nan nan nan nan nan nan nan nan nan nan nan nan nan nan nan nan nan nan
25 28 30 30 32 34 35 35 37 37 34 31 29 28 28 28 27 29 28 26 25 24 23 22 22 22 23 20 19 20 21 22 nan nan nan nan nan nan nan nan nan nan nan nan nan nan nan nan nan nan nan nan nan nan nan nan nan nan nan nan nan nan nan
26 27 30 32 34 35 36 37 37 36 35 33 29 28 28 27 27 30 29 27 26 25 24 22 23 23 22 20 20 19 22 22 nan nan nan nan nan nan nan nan nan nan nan nan nan nan nan nan nan nan nan nan nan nan nan nan nan nan nan nan nan nan nan
26 27 29 32 35 35 36 38 38 36 37 34 30 29 28 28 28 32 31 28 27 26 25 23 24 24 22 21 21 19 21 22 nan nan nan nan nan nan nan nan nan nan nan nan nan nan nan nan nan nan nan nan nan nan nan nan nan nan nan nan nan nan nan
25 27 29 31 34 35 37 39 38 38 38 34 30 29 29 31 30 34 34 31 29 28 25 25 24 23 22 21 20 19 21 22 nan nan nan nan nan nan nan nan nan nan nan nan nan nan nan nan nan nan nan nan nan nan nan nan nan nan nan nan nan nan nan
28 30 32 32 32 36 40 40 39 40 38 35 31 30 32 32 31 33 34 33 29 28 26 25 25 23 22 21 21 19 21 nan nan nan nan nan nan nan nan nan nan nan nan nan nan nan nan nan nan nan nan nan nan nan nan nan nan nan nan nan nan nan nan
30 30 32 31 29 34 40 39 39 41 39 36 33 32 33 33 32 33 35 33 30 27 26 26 24 22 21 22 21 21 21 nan nan nan nan nan nan nan nan nan nan nan nan nan nan nan nan nan nan nan nan nan nan nan nan nan nan nan nan nan nan nan nan
31 32 31 29 29 32 38 39 40 41 39 36 36 34 34 35 32 33 36 34 31 28 26 26 24 22 21 21 21 22 nan nan nan nan nan nan nan nan nan nan nan nan nan nan nan nan nan nan nan nan nan nan nan nan nan nan nan nan nan nan nan nan nan
32 30 30 29 28 29 36 40 42 41 39 37 38 37 35 35 32 33 36 35 32 29 27 26 24 22 21 21 21 22 nan nan nan nan nan nan nan nan nan nan nan nan nan nan nan nan nan nan nan nan nan nan nan nan nan nan nan nan nan nan nan nan nan
31 29 30 29 27 30 36 41 43 41 39 38 39 38 37 35 32 32 36 36 32 29 26 26 24 23 23 22 21 22 nan nan nan nan nan nan nan nan nan nan nan nan nan nan nan nan nan nan nan nan nan nan nan nan nan nan nan nan nan nan nan nan nan
29 29 32 30 31 34 39 42 43 41 39 38 38 38 36 35 33 33 35 35 32 28 26 26 25 24 23 23 23 24 23 nan nan nan nan nan nan nan nan nan nan nan nan nan nan nan nan nan nan nan nan nan nan nan nan nan nan nan nan nan nan nan nan
26 30 35 32 33 37 41 44 42 40 38 35 34 36 36 35 35 34 36 36 32 28 26 26 25 25 24 24 24 24 24 nan nan nan nan nan nan nan nan nan nan nan nan nan nan nan nan nan nan nan nan nan nan nan nan nan nan nan nan nan nan nan nan
30 31 33 32 35 39 41 45 43 38 35 31 32 35 36 36 36 35 36 36 32 28 27 27 26 25 24 24 24 25 25 24 25 nan nan nan nan nan nan nan nan nan nan nan nan nan nan nan nan nan nan nan nan nan nan nan nan nan nan nan nan nan nan
30 30 32 34 36 40 42 43 39 33 31 30 32 36 37 37 37 36 36 36 33 30 27 26 28 29 26 24 25 25 25 25 26 nan nan nan nan nan nan nan nan nan nan nan nan nan nan nan nan nan nan nan nan nan nan nan nan nan nan nan nan nan nan
30 29 31 35 38 42 42 41 37 32 30 30 31 36 37 38 37 36 37 37 35 30 28 28 33 29 27 26 26 26 27 27 27 28 nan nan nan nan nan nan nan nan nan nan nan nan nan nan nan nan nan nan nan nan nan nan nan nan nan nan nan nan nan
30 32 34 36 38 40 44 43 38 32 31 32 31 34 38 38 38 38 37 36 35 31 27 32 34 31 28 28 27 28 28 28 28 nan nan nan nan nan nan nan nan nan nan nan nan nan nan nan nan nan nan nan nan nan nan nan nan nan nan nan nan nan nan
32 34 37 37 42 44 42 42 36 33 34 33 33 33 38 39 38 38 37 37 35 32 28 35 34 33 30 29 29 29 29 30 30 nan nan nan nan nan nan nan nan nan nan nan nan nan nan nan nan nan nan nan nan nan nan nan nan nan nan nan nan nan nan
35 40 40 43 47 44 42 39 36 34 36 36 33 33 38 40 39 38 37 37 35 33 30 36 35 34 31 29 30 29 30 32 31 31 nan nan nan nan nan nan nan nan nan nan nan nan nan nan nan nan nan nan nan nan nan nan nan nan nan nan nan nan nan
37 42 42 45 47 41 41 39 36 35 36 35 32 33 37 40 40 39 39 39 36 34 33 39 37 35 32 29 30 29 31 33 32 33 34 36 37 37 nan nan nan nan nan 34 31 32 nan nan nan nan nan nan nan nan nan nan nan nan nan nan nan nan nan
40 41 42 46 47 42 42 38 34 34 36 36 34 34 35 40 41 40 39 40 37 34 36 40 37 36 33 29 31 29 32 34 34 35 36 38 39 38 nan nan nan nan 34 33 33 nan nan nan nan nan nan nan nan nan nan nan nan nan nan nan nan nan nan
43 44 44 44 44 43 41 36 34 36 36 35 35 34 34 38 40 40 40 38 37 34 37 37 38 37 35 31 30 30 33 34 34 35 37 39 39 39 37 nan nan nan 34 32 36 nan nan nan nan nan nan nan nan nan nan nan nan nan nan nan nan nan nan
46 45 42 40 42 42 38 34 36 42 39 36 36 33 36 38 40 40 39 36 36 36 36 38 40 38 36 34 31 32 34 35 36 36 37 39 38 38 37 37 nan nan 35 nan nan nan nan nan nan nan nan nan nan nan nan nan nan nan nan nan nan nan nan
43 41 42 42 44 39 33 33 41 43 42 38 35 35 37 36 37 39 38 36 39 35 37 41 41 39 38 36 32 34 36 36 37 38 39 39 38 36 37 36 34 35 33 37 nan 38 nan nan nan nan nan nan nan nan nan nan nan nan nan nan nan nan nan
43 42 41 44 43 36 35 39 41 43 40 39 36 36 37 36 37 38 39 38 38 34 38 40 39 41 39 36 32 33 35 36 38 40 40 41 40 36 35 34 35 33 37 41 nan nan nan nan nan nan nan nan nan nan nan nan nan nan nan nan nan nan nan
43 42 44 44 41 39 37 40 39 40 39 37 36 34 35 36 39 38 38 36 37 36 39 43 41 41 40 37 32 30 35 36 39 41 40 41 41 38 34 33 34 36 40 39 38 38 nan nan nan nan nan nan nan nan nan nan nan nan nan nan nan nan nan
41 43 44 43 41 41 39 38 37 37 37 36 36 36 38 38 38 37 35 36 38 38 41 43 42 39 41 40 35 30 35 37 40 43 41 nan 44 40 32 32 32 38 38 37 37 nan nan nan nan nan nan nan nan nan nan nan nan nan nan nan nan nan nan
45 47 46 43 42 42 40 38 35 34 34 35 37 39 40 41 41 41 40 38 39 40 41 40 43 40 41 41 36 31 34 39 42 42 43 nan nan 38 30 29 35 41 36 36 nan nan nan nan nan nan nan nan nan nan nan nan nan nan nan nan nan nan nan
46 48 45 44 45 42 38 36 34 32 33 34 36 37 39 41 43 47 44 42 42 41 39 41 43 42 40 40 38 35 37 40 44 42 44 nan nan 32 28 27 nan 38 35 nan nan nan nan nan nan nan nan nan nan nan nan nan nan nan nan nan nan nan nan
Wind_Direction
278 281 289 293 297 299 308 312 311 317 320 320 321 322 323 322 316 315 320 322 322 321 317 314 311 311 308 310 313 315 312 311 313 313 312 309 309 306 303 298 293 292 293 298 294 291 288 nan nan nan nan nan nan nan nan nan nan nan nan nan nan nan nan
272 275 281 287 295 300 305 305 308 314 319 322 322 321 322 320 314 314 321 324 323 321 316 311 311 314 313 312 315 314 313 312 313 315 312 309 310 305 300 300 298 296 297 300 298 296 299 296 301 nan nan nan nan nan nan nan nan nan nan nan nan nan nan
269 276 281 290 296 300 304 305 305 308 314 318 318 321 320 319 315 316 322 326 323 319 313 309 311 313 313 315 315 315 313 314 312 314 314 309 306 303 302 298 300 300 300 297 299 302 306 309 303 nan nan nan nan nan nan nan nan nan nan nan nan nan nan
274 279 285 291 296 299 302 301 302 307 312 314 314 316 318 317 315 317 321 321 317 313 310 308 309 310 312 311 312 315 315 319 316 316 314 313 308 304 304 303 299 299 297 300 300 302 304 305 309 317 nan nan nan nan nan nan nan nan nan nan nan nan nan
273 278 287 291 295 301 301 301 301 305 311 313 313 313 315 317 313 315 321 317 313 312 310 307 307 310 310 309 310 312 314 318 317 315 313 312 315 305 304 304 303 299 298 301 300 299 303 308 308 314 nan nan nan nan nan nan nan nan nan nan nan nan nan
270 280 287 292 294 296 297 299 304 307 312 312 309 310 313 317 313 314 317 314 310 310 308 309 309 310 308 308 310 314 313 315 316 315 312 313 311 308 304 304 301 301 303 302 301 303 304 304 308 311 nan nan nan nan nan nan nan nan nan nan nan nan nan
266 275 283 290 292 294 295 299 303 306 312 312 308 310 311 315 314 312 312 312 311 308 308 309 308 309 309 308 311 313 316 315 315 317 317 316 312 311 304 301 302 301 302 301 301 303 305 305 311 nan nan nan nan nan nan nan nan nan nan nan nan nan nan
262 270 279 285 290 293 296 299 299 305 310 309 306 305 312 313 311 308 310 313 312 310 306 304 303 306 307 309 309 311 313 314 317 316 317 317 313 313 309 304 301 301 301 303 302 303 305 308 309 nan nan nan nan nan nan nan nan nan nan nan nan nan nan
261 267 274 282 288 291 295 298 298 303 309 307 303 304 310 310 306 308 310 314 313 311 307 304 303 303 305 310 309 309 312 307 312 319 319 318 317 315 310 306 303 304 303 307 309 308 309 nan nan nan nan nan nan nan nan nan nan nan nan nan nan nan nan
266 271 275 284 287 290 293 295 296 302 309 307 298 301 308 307 307 306 307 312 313 309 304 302 302 303 302 305 309 308 310 308 nan 314 315 315 nan 315 311 311 307 nan nan 305 nan nan nan nan nan nan nan nan nan nan nan nan nan nan nan nan nan nan nan
267 270 272 278 281 287 292 292 294 298 306 303 297 299 306 307 306 306 304 310 310 307 304 301 303 301 302 306 308 308 307 306 nan nan nan nan nan nan nan nan nan nan nan nan nan nan nan nan nan nan nan nan nan nan nan nan nan nan nan nan nan nan nan
264 270 270 272 278 286 291 293 294 296 300 300 297 298 305 308 304 302 303 307 308 310 304 301 299 298 304 304 305 305 303 306 nan nan nan nan nan nan nan nan nan nan nan nan nan nan nan nan nan nan nan nan nan nan nan nan nan nan nan nan nan nan nan
264 270 273 273 277 284 288 291 293 295 297 297 296 298 306 307 304 298 300 306 311 307 303 300 296 298 303 303 304 304 304 308 nan nan nan nan nan nan nan nan nan nan nan nan nan nan nan nan nan nan nan nan nan nan nan nan nan nan nan nan nan nan nan
264 265 272 274 277 283 284 286 290 292 294 298 298 299 303 301 299 293 296 300 306 303 303 296 294 297 302 303 303 305 303 308 nan nan nan nan nan nan nan nan nan nan nan nan nan nan nan nan nan nan nan nan nan nan nan nan nan nan nan nan nan nan nan
253 259 266 272 279 280 280 285 288 289 294 296 298 298 298 295 293 293 294 299 304 304 299 295 295 297 302 302 303 299 301 nan nan nan nan nan nan nan nan nan nan nan nan nan nan nan nan nan nan nan nan nan nan nan nan nan nan nan nan nan nan nan nan
250 260 265 268 276 278 278 283 286 287 290 292 294 293 296 295 292 291 291 296 302 302 298 294 294 299 302 305 305 301 301 nan nan nan nan nan nan nan nan nan nan nan nan nan nan nan nan nan nan nan nan nan nan nan nan nan nan nan nan nan nan nan nan
250 256 260 265 274 275 276 279 281 285 289 290 290 292 296 294 290 289 289 294 298 298 297 292 295 300 304 305 304 304 nan nan nan nan nan nan nan nan nan nan nan nan nan nan nan nan nan nan nan nan nan nan nan nan nan nan nan nan nan nan nan nan nan
251 257 260 261 270 275 275 277 278 283 286 290 290 292 292 291 288 287 285 291 296 298 297 293 296 300 299 301 304 303 nan nan nan nan nan nan nan nan nan nan nan nan nan nan nan nan nan nan nan nan nan nan nan nan nan nan nan nan nan nan nan nan nan
255 257 258 257 266 270 271 274 276 280 287 291 290 291 291 287 284 284 284 289 295 297 296 292 295 299 300 301 303 303 nan nan nan nan nan nan nan nan nan nan nan nan nan nan nan nan nan nan nan nan nan nan nan nan nan nan nan nan nan nan nan nan nan
252 252 248 249 257 265 269 273 276 283 285 290 290 289 288 286 281 281 282 285 292 296 295 293 294 296 299 303 306 305 305 nan nan nan nan nan nan nan nan nan nan nan nan nan nan nan nan nan nan nan nan nan nan nan nan nan nan nan nan nan nan nan nan
246 245 243 247 256 262 266 270 276 281 284 289 290 289 286 285 279 278 279 283 289 293 291 288 290 292 296 303 305 306 304 nan nan nan nan nan nan nan nan nan nan nan nan nan nan nan nan nan nan nan nan nan nan nan nan nan nan nan nan nan nan nan nan
238 242 244 248 255 262 268 269 274 277 282 287 285 286 284 283 280 280 279 282 288 290 285 283 283 288 295 304 306 305 303 302 302 nan nan nan nan nan nan nan nan nan nan nan nan nan nan nan nan nan nan nan nan nan nan nan nan nan nan nan nan nan nan
234 242 245 248 256 262 267 272 277 280 286 288 286 283 283 282 281 281 281 282 286 284 279 275 280 294 297 301 304 300 299 299 300 nan nan nan nan nan nan nan nan nan nan nan nan nan nan nan nan nan nan nan nan nan nan nan nan nan nan nan nan nan nan
233 241 245 246 252 260 267 273 275 281 285 287 287 283 282 282 280 280 280 281 283 281 276 272 287 292 298 302 302 300 299 298 297 296 nan nan nan nan nan nan nan nan nan nan nan nan nan nan nan nan nan nan nan nan nan nan nan nan nan nan nan nan nan
234 239 242 246 252 259 261 266 273 282 287 287 286 282 282 282 279 277 274 278 279 280 278 275 288 291 293 297 299 298 298 296 295 nan nan nan nan nan nan nan nan nan nan nan nan nan nan nan nan nan nan nan nan nan nan nan nan nan nan nan nan nan nan
233 238 240 244 249 254 263 267 273 283 285 284 280 284 281 279 277 276 274 276 277 278 273 278 288 291 291 297 299 300 298 297 297 nan nan nan nan nan nan nan nan nan nan nan nan nan nan nan nan nan nan nan nan nan nan nan nan nan nan nan nan nan nan
234 236 240 243 249 253 261 271 277 276 277 277 280 281 278 278 275 275 274 275 276 278 275 278 286 289 291 297 299 300 298 300 299 300 nan nan nan nan nan nan nan nan nan nan nan nan nan nan nan nan nan nan nan nan nan nan nan nan nan nan nan nan nan
235 237 239 243 249 258 264 268 274 276 276 278 278 279 277 275 272 271 272 270 272 276 271 283 286 290 292 297 301 300 296 296 299 301 301 299 296 295 nan nan nan nan nan 310 310 313 nan nan nan nan nan nan nan nan nan nan nan nan nan nan nan nan nan
237 239 241 244 250 259 265 272 279 275 272 272 270 272 272 271 273 273 272 270 270 275 272 288 287 291 293 296 300 293 293 296 299 301 301 300 296 293 nan nan nan nan 305 309 307 nan nan nan nan nan nan nan nan nan nan nan nan nan nan nan nan nan nan
237 241 243 248 254 260 266 272 274 270 274 271 267 271 274 272 270 271 274 273 273 276 273 286 289 289 290 295 292 290 291 296 299 301 302 302 299 293 290 nan nan nan 303 306 300 nan nan nan nan nan nan nan nan nan nan nan nan nan nan nan nan nan nan
240 244 248 255 258 260 266 270 267 258 265 270 267 271 271 269 268 271 275 277 278 278 275 282 288 289 292 295 295 291 291 296 299 301 303 305 301 292 288 293 nan nan 301 nan nan nan nan nan nan nan nan nan nan nan nan nan nan nan nan nan nan nan nan
246 247 246 251 254 261 267 266 257 257 257 263 266 268 269 272 273 272 275 277 278 283 276 283 293 294 293 297 295 288 292 295 299 301 303 306 305 293 285 285 293 293 298 294 nan 308 nan nan nan nan nan nan nan nan nan nan nan nan nan nan nan nan nan
248 247 248 250 254 260 261 257 259 258 262 263 266 269 272 276 279 274 274 278 278 283 277 280 291 295 295 298 302 290 292 295 298 301 302 304 306 298 285 284 288 289 290 296 nan nan nan nan nan nan nan nan nan nan nan nan nan nan nan nan nan nan nan
244 245 247 250 251 252 257 257 263 263 266 267 270 272 278 278 275 276 273 279 282 284 278 281 288 297 297 300 303 296 293 295 294 296 298 301 305 301 285 279 286 288 290 299 304 313 nan nan nan nan nan nan nan nan nan nan nan nan nan nan nan nan nan
242 242 246 250 252 250 253 260 265 267 268 273 276 277 278 280 283 284 284 282 279 279 277 285 288 298 300 299 301 296 289 291 292 297 299 nan 304 299 281 273 280 287 293 299 307 nan nan nan nan nan nan nan nan nan nan nan nan nan nan nan nan nan nan
238 239 243 249 252 253 256 259 267 273 277 280 280 281 280 280 281 280 283 284 281 281 280 284 287 291 298 298 299 293 288 289 292 296 296 nan nan 294 274 270 274 286 293 300 nan nan nan nan nan nan nan nan nan nan nan nan nan nan nan nan nan nan nan
239 240 245 247 249 253 258 257 259 270 278 280 277 280 276 276 278 274 283 283 282 284 282 280 284 293 293 298 296 293 288 288 291 292 293 nan nan 281 268 270 nan 289 295 nan nan nan nan nan nan nan nan nan nan nan nan nan nan nan nan nan nan nan nan